Location: ??????
(55.7522°N, 37.6156°E)
Time: 17:13:14
(UTC+00:00)

USA 307 - Pass Details

Date: 14 June 2025
Orbit: 495 x 502 km, 54.0° (Epoch: 10 March)

Event Time Altitude Azimuth Distance (km) Brightness Sun altitude
Exits shadow 21:27:39 17° 185° (S) 1,284 4.0 -10.9°
Maximum altitude 21:29:32 24° 145° (SE) 1,051 3.8 -10.9°
Drops below altitude 10° 21:32:45 10° 91° (E) 1,711 5.3 -10.9°
Sets 21:35:15 0° 78° (ENE) 2,581 6.4 -10.9°
